| time (UTC) | temp C | wind direction | speed KPH | gust KPH | rain 1hr cm | rain 24hr cm | rain mn cm | humidity % | barometer mb |
| 20260506103044 | 16 | 0 | 0.0 | 3.2 | 0.00 | 0.00 | 0.00 | 94 | 1015.9 |
| 20260506101545 | 16 | 0 | 0.0 | 1.6 | 0.00 | 0.00 | 0.00 | 94 | 1015.7 |
| 20260506100047 | 16 | 0 | 0.0 | 1.6 | 0.00 | 0.00 | 0.00 | 93 | 1015.4 |
| 20260506094606 | 16 | 0 | 0.0 | 1.6 | 0.00 | 0.00 | 0.00 | 93 | 1015.7 |
| 20260506093044 | 16 | 0 | 0.0 | 1.6 | 0.00 | 0.00 | 0.00 | 93 | 1015.7 |
| 20260506091549 | 16 | 0 | 0.0 | 1.6 | 0.00 | 0.00 | 0.00 | 92 | 1015.9 |
| 20260506090045 | 16 | 0 | 0.0 | 0.0 | 0.00 | 0.00 | 0.00 | 92 | 1015.9 |
| 20260506084547 | 16 | 0 | 0.0 | 1.6 | 0.00 | 0.00 | 0.00 | 92 | 1016.0 |
| 20260506083045 | 16 | 0 | 0.0 | 1.6 | 0.00 | 0.00 | 0.00 | 92 | 1015.9 |
| 20260506081541 | 16 | 0 | 0.0 | 1.6 | 0.00 | 0.00 | 0.00 | 92 | 1015.8 |
| 20260506073050 | 17 | 0 | 0.0 | 1.6 | 0.00 | 0.00 | 0.00 | 91 | 1015.9 |
| 20260506071545 | 17 | 0 | 0.0 | 0.0 | 0.00 | 0.00 | 0.00 | 91 | 1015.6 |
| 20260506061541 | 17 | 0 | 0.0 | 0.0 | 0.00 | 0.00 | 0.00 | 90 | 1016.2 |
| 20260506044552 | 17 | 0 | 0.0 | 1.6 | 0.00 | 0.00 | 0.00 | 90 | 1016.9 |
| 20260506043044 | 17 | 0 | 0.0 | 1.6 | 0.00 | 0.00 | 0.00 | 90 | 1017.1 |
| 20260506041548 | 17 | 0 | 0.0 | 1.6 | 0.00 | 0.00 | 0.00 | 90 | 1017.3 |
| 20260506040057 | 17 | 0 | 0.0 | 3.2 | 0.00 | 0.00 | 0.00 | 89 | 1017.4 |
| 20260506034543 | 18 | 249 | 0.0 | 6.4 | 0.00 | 0.00 | 0.00 | 88 | 1017.2 |
| 20260506033046 | 18 | 0 | 0.0 | 1.6 | 0.00 | 0.00 | 0.00 | 87 | 1017.1 |
| 20260506031554 | 18 | 161 | 0.0 | 4.8 | 0.00 | 0.00 | 0.00 | 86 | 1017.1 |
| 20260506030044 | 18 | 0 | 0.0 | 4.8 | 0.00 | 0.00 | 0.00 | 84 | 1017.3 |
| 20260506024544 | 18 | 0 | 0.0 | 4.8 | 0.00 | 0.00 | 0.00 | 82 | 1017.2 |
| 20260506023043 | 18 | 0 | 0.0 | 1.6 | 0.00 | 0.00 | 0.00 | 81 | 1017.1 |
| 20260506021556 | 18 | 150 | 0.0 | 1.6 | 0.00 | 0.00 | 0.00 | 80 | 1017.2 |
| 20260506020045 | 19 | 0 | 0.0 | 1.6 | 0.00 | 0.00 | 0.00 | 79 | 1017.0 |
| 20260506014545 | 19 | 227 | 0.0 | 1.6 | 0.00 | 0.00 | 0.00 | 77 | 1016.8 |
| 20260506013048 | 19 | 0 | 0.0 | 6.4 | 0.00 | 0.00 | 0.00 | 76 | 1016.8 |
| 20260506011542 | 20 | 78 | 0.0 | 3.2 | 0.00 | 0.00 | 0.00 | 76 | 1016.7 |
| 20260506010045 | 20 | 294 | 0.0 | 4.8 | 0.00 | 0.00 | 0.00 | 75 | 1016.7 |
| 20260506004542 | 20 | 0 | 0.0 | 4.8 | 0.00 | 0.00 | 0.00 | 74 | 1016.6 |
| 20260506003045 | 20 | 0 | 0.0 | 6.4 | 0.00 | 0.00 | 0.00 | 73 | 1016.5 |
| 20260506001548 | 20 | 165 | 0.0 | 4.8 | 0.00 | 0.00 | 0.00 | 72 | 1016.4 |
| 20260506000047 | 21 | 238 | 0.0 | 4.8 | 0.00 | 0.00 | 0.00 | 71 | 1016.2 |
| 20260505234550 | 21 | 168 | 0.0 | 4.8 | 0.00 | 0.00 | 0.00 | 69 | 1016.1 |
| 20260505233043 | 22 | 175 | 0.0 | 4.8 | 0.00 | 0.00 | 0.00 | 66 | 1015.9 |
| 20260505231548 | 22 | 0 | 1.6 | 6.4 | 0.00 | 0.00 | 0.00 | 65 | 1015.6 |
| 20260505230041 | 23 | 0 | 1.6 | 8.0 | 0.00 | 0.00 | 0.00 | 64 | 1015.7 |
| 20260505224542 | 23 | 259 | 1.6 | 9.7 | 0.00 | 0.00 | 0.00 | 64 | 1015.6 |
| 20260505223052 | 23 | 227 | 0.0 | 6.4 | 0.00 | 0.00 | 0.00 | 65 | 1015.7 |
| 20260505221546 | 23 | 121 | 1.6 | 9.7 | 0.00 | 0.00 | 0.00 | 66 | 1015.8 |
| 20260505220043 | 23 | 116 | 1.6 | 19.3 | 0.00 | 0.00 | 0.00 | 65 | 1015.6 |
| 20260505214549 | 23 | 225 | 1.6 | 8.0 | 0.00 | 0.00 | 0.00 | 64 | 1015.5 |
| 20260505213048 | 24 | 0 | 1.6 | 9.7 | 0.00 | 0.00 | 0.00 | 62 | 1015.4 |
| 20260505211542 | 25 | 166 | 0.0 | 9.7 | 0.00 | 0.00 | 0.00 | 62 | 1015.4 |
| 20260505210044 | 25 | 275 | 1.6 | 6.4 | 0.00 | 0.00 | 0.00 | 61 | 1015.3 |
| 20260505204547 | 25 | 206 | 1.6 | 12.9 | 0.00 | 0.00 | 0.00 | 61 | 1015.3 |
| 20260505203041 | 25 | 111 | 1.6 | 11.3 | 0.00 | 0.00 | 0.00 | 60 | 1015.4 |
| 20260505201546 | 26 | 92 | 3.2 | 11.3 | 0.00 | 0.00 | 0.00 | 58 | 1015.7 |
| 20260505200049 | 26 | 144 | 1.6 | 6.4 | 0.00 | 0.00 | 0.00 | 56 | 1016.0 |
| 20260505194542 | 26 | 59 | 1.6 | 12.9 | 0.00 | 0.00 | 0.00 | 55 | 1016.2 |
| 20260505193042 | 26 | 166 | 1.6 | 11.3 | 0.00 | 0.00 | 0.00 | 53 | 1016.1 |
| 20260505191543 | 26 | 0 | 3.2 | 12.9 | 0.00 | 0.00 | 0.00 | 50 | 1016.4 |
| 20260505190046 | 26 | 278 | 0.0 | 8.0 | 0.00 | 0.00 | 0.00 | 52 | 1016.6 |
| 20260505184545 | 26 | 100 | 1.6 | 11.3 | 0.00 | 0.00 | 0.00 | 52 | 1016.7 |
| 20260505183047 | 26 | 129 | 0.0 | 9.7 | 0.00 | 0.00 | 0.00 | 53 | 1016.8 |
| 20260505181549 | 25 | 178 | 0.0 | 9.7 | 0.00 | 0.00 | 0.00 | 55 | 1016.8 |
| 20260505180045 | 25 | 153 | 0.0 | 8.0 | 0.00 | 0.00 | 0.00 | 55 | 1017.0 |
| 20260505174553 | 25 | 217 | 1.6 | 8.0 | 0.00 | 0.00 | 0.00 | 54 | 1016.8 |
| 20260505173046 | 25 | 126 | 0.0 | 8.0 | 0.00 | 0.00 | 0.00 | 52 | 1017.0 |
| 20260505171551 | 25 | 219 | 1.6 | 11.3 | 0.00 | 0.00 | 0.00 | 52 | 1017.2 |
| 20260505170047 | 24 | 197 | 1.6 | 6.4 | 0.00 | 0.00 | 0.00 | 55 | 1017.4 |
| 20260505164556 | 24 | 0 | 1.6 | 6.4 | 0.00 | 0.00 | 0.00 | 55 | 1017.5 |
| 20260505163051 | 24 | 228 | 1.6 | 6.4 | 0.00 | 0.00 | 0.00 | 55 | 1017.6 |
| 20260505161546 | 23 | 171 | 0.0 | 9.7 | 0.00 | 0.00 | 0.00 | 56 | 1017.8 |
| 20260505153044 | 22 | 180 | 1.6 | 6.4 | 0.00 | 0.00 | 0.00 | 59 | 1018.0 |
| 20260505151546 | 22 | 229 | 0.0 | 9.7 | 0.00 | 0.00 | 0.00 | 62 | 1018.0 |
| 20260505130104 | 18 | 223 | 0.0 | 4.8 | 0.00 | 0.00 | 0.00 | 74 | 1018.1 |
| 20260505124553 | 18 | 226 | 1.6 | 8.0 | 0.00 | 0.00 | 0.00 | 76 | 1018.2 |
| 20260505123047 | 17 | 224 | 0.0 | 4.8 | 0.00 | 0.00 | 0.00 | 78 | 1018.2 |
| 20260505121553 | 17 | 225 | 1.6 | 6.4 | 0.00 | 0.00 | 0.00 | 79 | 1018.1 |
| 20260505114547 | 16 | 225 | 0.0 | 4.8 | 0.00 | 0.00 | 0.00 | 81 | 1018.1 |
| 20260505113051 | 16 | 235 | 0.0 | 4.8 | 0.00 | 0.00 | 0.00 | 83 | 1018.0 |
| 20260505111542 | 15 | 0 | 0.0 | 3.2 | 0.00 | 0.00 | 0.00 | 83 | 1017.9 |